Location: Boulin
(43.2500°N, 0.1333°E)
Time: 01:11:12
(UTC+00:00)

Cosmos 372 Rocket - Pass Details

Date: 11 December 2025
Orbit: 734 x 761 km, 74.1° (Epoch: 17 January)

Event Time Altitude Azimuth Distance (km) Brightness Sun altitude
Rises 18:33:27 0° 207° (SSW) 3,191 7.7 -22.7°
Reaches altitude 10° 18:35:50 10° 210° (SSW) 2,266 6.9 -23.1°
Maximum altitude 18:40:55 65° 292° (WNW) 824 4.3 -24.1°
Enters shadow 18:43:21 31° 5° (N) 1,304 5.0 -24.5°
